GFSFLT1_850_thetae_132.txt.gz
Theta_e
345 345 344 342 344 346 349 348 349 348 347 348 347 347 348 348 342 344 346 346 347 347 347 347 349 349 350 348 341 341 341 347 347
344 345 345 342 344 346 348 349 349 349 348 347 347 347 347 347 344 345 349 350 347 348 349 349 351 351 350 350 350 342 347 348 349
344 346 345 344 344 346 347 348 348 349 349 348 347 346 348 348 349 346 349 345 343 348 349 345 351 349 350 350 350 349 342 349 351
345 345 345 346 345 346 347 348 348 349 349 349 348 348 348 348 348 349 349 343 343 346 344 349 346 345 348 349 350 350 348 349 350
345 344 345 346 347 347 348 348 349 350 349 350 349 348 349 349 348 349 349 350 351 348 343 343 345 345 345 344 350 350 350 350 351
344 345 343 344 345 344 347 349 350 350 350 351 350 349 348 348 349 349 349 349 350 349 347 344 345 347 345 344 344 348 350 348 351
346 344 346 341 343 344 346 344 350 351 351 352 351 350 349 349 349 349 349 349 350 350 345 343 343 345 345 347 346 345 345 350 351
346 346 346 345 348 346 343 345 346 349 351 353 353 353 352 351 351 351 351 349 349 348 348 346 344 349 347 346 350 349 349 349 346
347 347 347 343 342 344 344 344 343 344 350 348 349 351 350 352 352 349 349 346 343 339 342 348 341 343 345 348 350 348 345 344 347
336 341 346 342 339 336 336 341 343 343 343 347 342 341 341 343 345 345 343 343 344 346 349 349 348 349 348 348 348 343 339 340 343
333 338 341 343 345 343 342 341 339 340 343 342 342 340 343 343 344 345 345 345 344 345 346 349 349 348 348 347 345 342 344 343 342
333 334 337 339 339 342 341 339 338 342 340 343 341 341 342 342 340 344 348 347 347 347 349 348 346 345 346 345 345 344 344 343 343
334 333 335 338 340 340 340 340 337 344 340 341 339 339 344 344 343 343 344 345 346 345 345 344 343 345 345 343 341 341 341 341 343
332 332 333 335 337 339 341 341 342 344 344 340 338 341 339 343 342 339 338 342 343 344 345 344 342 338 341 341 340 340 341 341 342
332 332 332 333 336 337 339 339 341 342 341 342 343 343 343 342 340 338 339 340 342 343 342 340 341 341 340 339 336 340 341 342 343
330 332 331 332 334 335 337 338 339 341 341 336 337 337 339 340 342 339 334 335 338 338 337 337 337 336 334 337 340 337 339 340 339
330 330 330 330 333 333 335 336 338 339 340 336 336 338 339 338 334 332 334 334 334 336 336 336 336 337 337 337 337 338 337 338 337
329 328 328 331 332 332 332 334 335 336 338 337 339 337 337 335 334 336 332 333 334 335 336 336 335 335 335 334 334 334 334 334 335
329 329 328 329 330 330 331 331 333 334 335 335 337 337 337 336 336 335 335 334 335 333 332 333 333 334 333 329 329 329 330 329 327
326 326 327 327 328 326 328 328 329 329 330 331 333 333 334 333 333 332 331 332 332 332 330 329 330 329 329 328 323 323 324 324 322

GFSFLT1_850_thetae_138.txt.gz
Theta_e
342 342 344 343 346 346 347 346 345 347 349 346 344 344 349 346 343 345 346 347 343 345 346 349 347 346 346 341 352 347 341 346 349
344 344 345 346 347 345 345 346 347 347 348 346 344 346 346 344 341 346 349 346 344 346 350 348 348 348 350 346 345 350 348 346 349
347 348 346 346 347 349 347 346 346 349 349 349 346 349 348 345 344 343 345 346 348 345 350 347 349 352 350 346 349 348 350 346 350
348 345 347 347 344 344 349 348 347 348 351 351 348 348 350 349 348 345 344 348 349 339 349 349 351 346 344 349 349 347 348 348 348
348 347 348 348 346 343 345 350 348 347 349 352 348 349 350 349 349 349 349 346 347 347 344 343 345 350 350 349 349 346 349 349 346
350 349 348 347 347 346 346 352 349 349 348 351 349 348 348 348 348 350 350 351 347 346 346 345 344 344 347 348 347 349 347 346 343
349 350 349 347 348 346 349 349 352 353 351 351 351 348 350 348 349 348 349 349 349 350 348 349 346 345 350 346 346 348 349 349 348
349 350 348 346 344 344 345 343 342 347 349 355 351 351 348 349 347 347 350 349 350 350 350 350 348 347 348 349 347 346 347 348 347
349 349 349 340 342 341 340 341 342 341 342 346 353 352 350 349 349 348 347 350 350 350 349 348 350 351 351 350 346 350 349 351 350
343 341 346 346 346 337 338 337 338 341 348 342 344 354 349 352 350 348 348 349 348 347 347 346 345 345 344 346 348 348 351 350 350
342 341 340 343 341 342 339 340 339 339 343 344 345 347 350 351 352 353 352 348 346 346 346 347 346 345 346 346 347 347 345 346 348
340 340 341 341 339 339 341 341 342 341 339 339 341 344 345 344 346 346 350 350 350 350 349 348 347 346 346 345 346 346 347 346 347
339 339 338 339 340 339 340 341 341 340 340 339 340 339 343 343 342 347 345 345 345 346 346 346 348 348 349 348 345 345 346 345 341
338 338 338 337 336 335 338 339 340 341 341 343 341 340 340 343 341 344 344 342 340 340 340 340 340 345 347 348 347 347 346 344 344
336 336 335 335 335 337 337 338 339 341 342 342 342 341 340 341 340 340 339 335 335 335 336 338 338 343 343 343 343 343 344 343 342
336 335 334 333 333 333 335 337 339 340 341 341 341 340 340 335 332 335 336 336 336 336 337 336 338 339 339 339 339 339 339 339 339
335 334 334 331 333 333 335 337 339 339 339 336 337 341 337 334 336 333 335 337 335 337 337 337 337 336 335 334 334 335 335 336 336
334 331 331 331 332 332 334 335 336 337 337 336 339 338 338 337 335 334 334 335 336 336 336 335 335 336 336 335 334 335 335 336 336
332 330 330 332 331 332 332 334 335 336 337 337 337 336 335 334 334 335 332 333 335 334 334 334 334 334 334 333 332 332 333 333 333
331 329 330 329 329 330 330 330 332 333 334 335 335 335 335 335 335 334 334 333 333 333 332 332 331 331 331 330 329 328 327 329 328

GFSFLT1_850_thetae_141.txt.gz
Theta_e
344 341 342 345 345 343 346 348 347 346 346 343 342 343 344 345 344 345 347 345 344 343 342 348 346 345 343 342 336 339 340 338 338
348 344 341 345 345 344 345 347 347 345 345 345 340 341 341 346 346 345 346 346 348 344 346 347 347 349 346 347 344 344 348 341 338
342 343 341 345 345 345 344 347 345 345 345 345 342 338 339 345 345 341 345 346 346 344 346 347 347 347 347 347 346 348 347 347 344
343 342 341 344 344 345 347 348 348 346 346 347 346 344 339 340 342 343 342 348 343 345 348 348 350 349 349 347 346 347 346 346 347
346 348 347 347 345 346 348 348 347 349 347 348 348 345 339 343 342 343 343 343 342 346 348 349 347 347 346 347 343 345 347 347 347
335 348 349 347 347 348 348 348 347 349 350 349 349 345 342 345 344 346 347 344 343 343 343 342 345 343 341 342 344 345 346 346 347
349 348 348 348 347 346 346 347 347 346 349 351 350 347 343 343 347 348 347 347 350 348 346 346 347 344 343 344 347 347 346 348 347
350 349 347 342 346 345 346 346 346 346 340 348 350 349 349 346 346 347 347 349 348 350 348 347 347 349 346 345 346 345 344 346 346
345 347 346 343 342 344 343 341 338 342 340 340 342 347 346 349 348 347 348 347 348 349 351 348 348 349 348 345 348 349 347 347 349
343 343 346 346 341 339 338 335 333 334 340 340 341 339 342 343 350 348 348 346 349 350 349 349 350 347 346 346 344 344 345 350 351
342 342 343 343 343 341 336 336 338 337 339 341 339 339 338 336 348 348 349 346 345 345 347 347 346 345 344 344 344 344 345 346 345
339 341 340 340 340 340 339 344 340 339 338 341 342 343 342 340 342 343 347 346 346 346 345 346 346 345 346 345 346 345 346 346 346
339 338 338 338 339 339 339 340 341 340 339 340 339 339 340 343 344 346 347 347 347 346 346 346 346 347 347 347 347 347 346 345 345
338 338 337 336 336 334 338 339 339 339 340 340 344 342 339 339 341 343 344 345 346 344 342 341 340 340 339 339 344 344 344 346 346
337 336 334 334 334 336 335 337 338 339 341 342 342 343 340 340 341 341 342 343 340 337 336 336 336 336 337 339 342 343 342 343 343
336 335 331 332 332 332 334 337 338 340 339 340 342 342 339 340 340 338 337 338 336 334 335 336 336 337 337 338 338 338 338 339 339
334 334 332 330 331 333 335 335 336 338 339 338 337 339 340 334 332 332 333 334 336 335 336 337 336 336 336 336 336 336 336 336 337
333 331 329 330 330 332 333 334 335 338 337 337 336 338 339 336 335 336 337 337 336 336 336 336 336 336 336 335 333 335 335 335 335
331 328 329 329 329 330 332 333 335 336 336 336 337 337 337 335 333 333 333 334 335 335 336 334 333 334 334 333 333 333 333 333 333
329 327 328 328 328 329 330 330 332 334 334 335 336 335 335 334 335 335 334 332 333 333 333 333 332 331 331 331 331 331 330 330 330

GFSFLT1_850_thetae_144.txt.gz
Theta_e
343 341 341 342 344 344 343 347 346 344 343 340 339 341 342 343 342 343 344 344 340 343 344 343 344 343 345 344 338 336 336 335 336
342 340 341 341 343 343 343 345 347 346 344 341 339 338 340 344 341 344 346 346 343 343 341 343 345 346 345 344 345 341 341 338 336
342 343 342 341 342 344 343 342 345 346 345 344 340 341 341 342 344 343 343 345 346 344 346 345 347 346 347 346 345 343 346 348 345
336 341 344 343 341 341 344 345 346 347 346 346 345 342 342 340 344 342 343 345 347 347 344 345 347 346 347 347 346 346 349 348 349
337 340 347 343 342 341 344 344 344 346 347 346 346 343 340 340 340 343 343 343 343 345 346 344 347 345 347 347 348 345 345 346 344
337 341 347 346 344 344 345 345 347 347 347 346 347 346 344 342 341 342 342 340 341 344 345 346 347 348 346 347 346 347 344 345 344
336 338 344 347 346 346 346 347 348 348 347 347 346 347 346 343 344 344 341 342 341 340 342 346 343 343 345 343 341 343 345 345 345
342 340 343 343 344 343 344 346 347 346 345 345 344 347 347 344 344 346 344 346 344 344 346 343 344 344 346 344 343 342 345 345 345
344 344 343 343 344 343 342 342 342 344 345 345 344 342 347 346 345 344 345 345 346 347 350 349 347 347 347 347 345 345 346 347 345
342 343 341 344 342 342 339 335 335 335 338 344 340 341 343 343 345 347 346 345 344 345 345 347 348 348 348 348 348 346 347 348 346
342 341 343 341 340 338 336 338 340 339 339 339 339 341 340 339 340 340 345 346 348 349 345 346 347 345 347 347 347 345 344 343 344
340 341 340 341 341 339 339 340 340 340 339 342 343 340 340 336 339 339 344 348 347 346 345 347 344 346 348 346 345 345 345 345 346
337 337 338 338 338 338 338 337 339 340 339 338 339 339 340 341 339 337 338 336 344 346 344 344 346 345 345 345 345 345 345 345 345
337 336 335 334 333 332 332 335 337 339 340 339 339 339 340 339 341 341 343 342 339 346 345 344 345 344 345 345 346 346 345 346 346
335 335 332 331 330 329 333 335 338 338 338 339 341 343 340 340 340 341 342 342 340 341 343 343 342 340 339 338 338 338 338 341 343
336 334 330 328 328 331 333 334 336 335 337 338 341 340 340 340 339 340 340 336 337 335 336 337 336 336 336 338 338 338 338 338 339
335 333 331 328 327 334 334 333 335 336 336 338 340 340 338 337 335 334 335 333 335 335 333 336 336 336 336 336 335 335 335 335 337
333 331 328 326 328 332 331 333 333 334 337 337 336 339 340 336 334 333 334 336 335 334 335 336 336 335 335 334 333 334 334 334 334
330 325 326 327 328 330 332 332 335 336 336 335 336 337 336 335 334 334 333 333 335 335 335 334 333 333 334 333 332 332 332 333 333
327 325 327 327 327 329 329 329 332 334 335 336 336 336 334 334 333 334 333 332 333 333 333 333 332 331 331 331 331 330 330 330 330

GFSFLT1_850_thetae_147.txt.gz
Theta_e
340 341 345 345 345 345 345 344 344 344 342 342 342 342 341 339 340 341 342 344 343 342 342 342 341 343 342 345 339 338 338 338 338
341 340 341 344 344 344 345 345 344 344 344 343 343 342 341 340 340 342 342 344 344 343 342 343 344 345 342 343 341 338 335 334 334
343 342 340 342 343 344 344 345 344 345 346 344 343 340 341 340 340 342 342 343 344 340 343 340 342 345 345 345 344 345 342 341 343
336 341 343 342 341 342 343 343 343 343 345 345 344 340 337 340 341 342 342 341 344 344 344 342 343 344 346 346 346 346 343 343 345
338 343 345 344 342 341 342 343 343 343 344 346 345 343 339 339 340 343 342 341 342 344 345 343 342 344 345 345 348 345 345 344 345
337 341 346 345 344 342 341 342 344 343 345 346 345 345 343 341 341 342 342 344 342 344 345 347 345 343 344 344 345 346 345 344 345
335 335 341 346 345 343 343 343 343 344 344 345 346 346 346 345 343 342 341 343 344 342 343 343 344 345 345 346 344 346 343 346 346
337 334 333 340 344 344 340 339 342 344 345 345 345 346 346 346 345 343 342 342 344 343 342 342 342 344 346 343 342 343 342 342 345
340 337 336 336 339 341 340 339 344 344 343 347 345 344 346 345 345 345 343 343 344 342 343 342 342 343 344 342 344 345 343 342 345
342 340 343 341 340 340 341 342 340 337 337 342 343 342 343 343 345 346 344 342 344 344 344 344 346 347 346 346 346 347 345 344 345
341 343 342 342 341 340 336 337 337 337 338 337 340 342 342 343 342 342 343 345 344 343 343 344 345 345 347 346 345 347 346 347 346
340 341 342 339 339 339 339 340 339 339 340 342 340 339 339 339 340 339 339 340 340 343 344 343 346 346 344 345 344 345 344 345 344
336 339 339 339 339 338 338 338 338 339 339 339 340 342 341 339 340 340 337 337 339 341 345 345 346 344 343 344 342 343 343 344 344
336 334 333 332 332 333 333 333 335 336 339 339 339 339 339 339 339 339 339 339 338 336 340 343 344 344 344 346 345 345 345 345 345
334 332 330 327 327 328 331 336 338 336 337 339 340 341 342 340 339 339 340 340 340 341 340 340 339 341 344 344 344 344 344 342 341
335 332 330 328 325 327 329 333 335 335 335 337 338 338 339 339 339 340 341 338 336 338 340 340 339 338 339 338 337 338 338 338 339
334 332 330 328 324 330 331 332 332 334 335 336 338 339 339 337 337 337 337 333 335 335 335 335 336 336 336 336 336 336 335 335 335
333 331 328 325 325 329 331 332 332 332 334 334 335 338 337 333 332 332 333 335 334 333 333 334 335 335 335 335 335 335 335 335 336
332 326 325 325 327 329 331 332 331 333 334 335 335 336 336 335 335 335 334 334 333 333 334 334 334 333 333 332 332 332 332 333 333
327 323 326 326 327 329 328 331 331 335 335 335 335 336 335 333 333 333 333 332 332 333 333 333 332 331 331 331 331 331 331 331 331